Time,TemperatureF,DewpointF,PressureIn,WindDirection,WindDirectionDegrees,WindSpeedMPH,WindSpeedGustMPH,Humidity,HourlyPrecipIn,Conditions,Clouds,dailyrainin,SolarRadiationWatts/m^2,SoftwareType,DateUTC
2013-03-23 00:02:00,17.0,11.0,-100.00,North,349,1.0,3.0,76,0.00,,,0.00,0.000000,,2013-03-23 05:02:00,
2013-03-23 00:33:00,15.0,9.0,-100.00,WSW,238,1.0,3.0,76,0.00,,,0.00,0.000000,,2013-03-23 05:33:00,
2013-03-23 00:42:00,15.0,9.0,-100.00,WSW,238,1.0,3.0,76,0.00,,,0.00,0.000000,,2013-03-23 05:42:00,
2013-03-23 00:52:00,15.0,9.0,-100.00,WSW,238,1.0,3.0,76,0.00,,,0.00,0.000000,,2013-03-23 05:52:00,
2013-03-23 01:02:00,15.0,9.0,-100.00,WSW,238,1.0,3.0,76,0.00,,,0.00,0.000000,,2013-03-23 06:02:00,
2013-03-23 01:32:00,14.0,8.0,-100.00,SW,228,1.0,2.0,78,0.00,,,0.00,0.000000,,2013-03-23 06:32:00,
2013-03-23 01:42:00,14.0,8.0,-100.00,SW,228,1.0,2.0,78,0.00,,,0.00,0.000000,,2013-03-23 06:42:00,
2013-03-23 01:52:00,14.0,8.0,-100.00,SW,228,1.0,2.0,78,0.00,,,0.00,0.000000,,2013-03-23 06:52:00,
2013-03-23 02:02:00,14.0,8.0,-100.00,SW,228,1.0,2.0,78,0.00,,,0.00,0.000000,,2013-03-23 07:02:00,
2013-03-23 02:33:00,13.0,7.0,-100.00,North,8,1.0,7.0,77,0.00,,,0.00,0.000000,,2013-03-23 07:33:00,
2013-03-23 02:42:00,13.0,7.0,-100.00,North,8,1.0,7.0,77,0.00,,,0.00,0.000000,,2013-03-23 07:42:00,
2013-03-23 02:52:00,13.0,7.0,-100.00,North,8,1.0,7.0,77,0.00,,,0.00,0.000000,,2013-03-23 07:52:00,
2013-03-23 03:02:00,13.0,7.0,-100.00,North,8,1.0,7.0,77,0.00,,,0.00,0.000000,,2013-03-23 08:02:00,
2013-03-23 03:32:00,15.0,9.0,-100.00,ESE,112,1.0,4.0,78,0.00,,,0.00,0.000000,,2013-03-23 08:32:00,
2013-03-23 03:42:00,15.0,9.0,-100.00,ESE,112,1.0,4.0,78,0.00,,,0.00,0.000000,,2013-03-23 08:42:00,
2013-03-23 03:52:00,15.0,9.0,-100.00,ESE,112,1.0,4.0,78,0.00,,,0.00,0.000000,,2013-03-23 08:52:00,
2013-03-23 04:02:00,15.0,9.0,-100.00,ESE,112,1.0,4.0,78,0.00,,,0.00,0.000000,,2013-03-23 09:02:00,
2013-03-23 04:33:00,15.0,9.0,-100.00,SW,220,0.0,2.0,78,0.00,,,0.00,0.000000,,2013-03-23 09:33:00,
2013-03-23 04:43:00,15.0,9.0,-100.00,SW,220,0.0,2.0,78,0.00,,,0.00,0.000000,,2013-03-23 09:43:00,
2013-03-23 04:53:00,15.0,9.0,-100.00,SW,220,0.0,2.0,78,0.00,,,0.00,0.000000,,2013-03-23 09:53:00,
2013-03-23 05:03:00,15.0,9.0,-100.00,SW,220,0.0,2.0,78,0.00,,,0.00,0.000000,,2013-03-23 10:03:00,
2013-03-23 05:34:00,13.0,8.0,-100.00,SW,234,2.0,4.0,80,0.00,,,0.00,0.000000,,2013-03-23 10:34:00,
2013-03-23 05:43:00,13.0,8.0,-100.00,SW,234,2.0,4.0,80,0.00,,,0.00,0.000000,,2013-03-23 10:43:00,
2013-03-23 05:52:00,13.0,8.0,-100.00,SW,234,2.0,4.0,80,0.00,,,0.00,0.000000,,2013-03-23 10:52:00,
2013-03-23 06:03:00,13.0,8.0,-100.00,SW,234,2.0,4.0,80,0.00,,,0.00,0.000000,,2013-03-23 11:03:00,
2013-03-23 06:32:00,16.0,9.0,-100.00,ENE,70,2.0,7.0,75,0.00,,,0.00,0.000000,,2013-03-23 11:32:00,
2013-03-23 06:42:00,16.0,9.0,-100.00,ENE,70,2.0,7.0,75,0.00,,,0.00,0.000000,,2013-03-23 11:42:00,
2013-03-23 06:52:00,16.0,9.0,-100.00,ENE,70,2.0,7.0,75,0.00,,,0.00,0.000000,,2013-03-23 11:52:00,
2013-03-23 07:02:00,16.0,9.0,-100.00,ENE,70,2.0,7.0,75,0.00,,,0.00,0.000000,,2013-03-23 12:02:00,
2013-03-23 07:33:00,17.0,10.0,-100.00,SE,142,1.0,3.0,74,0.00,,,0.00,0.000000,,2013-03-23 12:33:00,
2013-03-23 07:43:00,17.0,10.0,-100.00,SE,142,1.0,3.0,74,0.00,,,0.00,0.000000,,2013-03-23 12:43:00,
2013-03-23 07:53:00,17.0,10.0,-100.00,SE,142,1.0,3.0,74,0.00,,,0.00,0.000000,,2013-03-23 12:53:00,
2013-03-23 08:03:00,17.0,10.0,-100.00,SE,142,1.0,3.0,74,0.00,,,0.00,0.000000,,2013-03-23 13:03:00,
2013-03-23 08:33:00,20.0,12.0,-100.00,East,87,3.0,5.0,71,0.00,,,0.00,25.000000,,2013-03-23 13:33:00,
2013-03-23 08:43:00,20.0,12.0,-100.00,East,87,3.0,5.0,71,0.00,,,0.00,25.000000,,2013-03-23 13:43:00,
2013-03-23 08:53:00,20.0,12.0,-100.00,East,87,3.0,5.0,71,0.00,,,0.00,25.000000,,2013-03-23 13:53:00,
2013-03-23 09:03:00,20.0,12.0,-100.00,East,87,3.0,5.0,71,0.00,,,0.00,25.000000,,2013-03-23 14:03:00,
2013-03-23 09:33:00,27.0,17.0,-100.00,East,81,3.0,7.0,65,0.00,,,0.00,122.000000,,2013-03-23 14:33:00,
2013-03-23 09:43:00,27.0,17.0,-100.00,East,81,3.0,7.0,65,0.00,,,0.00,122.000000,,2013-03-23 14:43:00,
2013-03-23 09:53:00,27.0,17.0,-100.00,East,81,3.0,7.0,65,0.00,,,0.00,122.000000,,2013-03-23 14:53:00,
2013-03-23 10:03:00,27.0,17.0,-100.00,East,81,3.0,7.0,65,0.00,,,0.00,122.000000,,2013-03-23 15:03:00,
2013-03-23 10:34:00,33.0,18.0,-100.00,SE,124,4.0,7.0,54,0.00,,,0.00,299.000000,,2013-03-23 15:34:00,
2013-03-23 10:44:00,33.0,18.0,-100.00,SE,124,4.0,7.0,54,0.00,,,0.00,299.000000,,2013-03-23 15:44:00,
2013-03-23 10:53:00,33.0,18.0,-100.00,SE,124,4.0,7.0,54,0.00,,,0.00,299.000000,,2013-03-23 15:53:00,
2013-03-23 11:03:00,33.0,18.0,-100.00,SE,124,4.0,7.0,54,0.00,,,0.00,299.000000,,2013-03-23 16:03:00,
2013-03-23 11:33:00,35.0,18.0,-100.00,ESE,107,5.0,8.0,50,0.00,,,0.00,519.000000,,2013-03-23 16:33:00,
2013-03-23 11:43:00,35.0,18.0,-100.00,ESE,107,5.0,8.0,50,0.00,,,0.00,519.000000,,2013-03-23 16:43:00,
2013-03-23 11:53:00,35.0,18.0,-100.00,ESE,107,5.0,8.0,50,0.00,,,0.00,519.000000,,2013-03-23 16:53:00,
2013-03-23 12:02:00,35.0,18.0,-100.00,ESE,107,5.0,8.0,50,0.00,,,0.00,519.000000,,2013-03-23 17:02:00,
2013-03-23 12:33:00,39.0,19.0,-100.00,East,84,5.0,9.0,44,0.00,,,0.00,619.000000,,2013-03-23 17:33:00,
2013-03-23 12:43:00,39.0,19.0,-100.00,East,84,5.0,9.0,44,0.00,,,0.00,619.000000,,2013-03-23 17:43:00,
2013-03-23 12:53:00,39.0,19.0,-100.00,East,84,5.0,9.0,44,0.00,,,0.00,619.000000,,2013-03-23 17:53:00,
2013-03-23 13:03:00,39.0,19.0,-100.00,East,84,5.0,9.0,44,0.00,,,0.00,619.000000,,2013-03-23 18:03:00,
2013-03-23 13:32:00,41.0,19.0,-100.00,SE,139,5.0,10.0,41,0.00,,,0.00,733.000000,,2013-03-23 18:32:00,
2013-03-23 13:43:00,41.0,19.0,-100.00,SE,139,5.0,10.0,41,0.00,,,0.00,733.000000,,2013-03-23 18:43:00,
2013-03-23 13:53:00,41.0,19.0,-100.00,SE,139,5.0,10.0,41,0.00,,,0.00,733.000000,,2013-03-23 18:53:00,
2013-03-23 14:03:00,41.0,19.0,-100.00,SE,139,5.0,10.0,41,0.00,,,0.00,733.000000,,2013-03-23 19:03:00,
2013-03-23 14:33:00,42.0,18.0,-100.00,ESE,103,5.0,11.0,37,0.00,,,0.00,731.000000,,2013-03-23 19:33:00,
2013-03-23 14:43:00,42.0,18.0,-100.00,ESE,103,5.0,11.0,37,0.00,,,0.00,731.000000,,2013-03-23 19:43:00,
2013-03-23 14:53:00,42.0,18.0,-100.00,ESE,103,5.0,11.0,37,0.00,,,0.00,731.000000,,2013-03-23 19:53:00,
2013-03-23 15:02:00,42.0,18.0,-100.00,ESE,103,5.0,11.0,37,0.00,,,0.00,731.000000,,2013-03-23 20:02:00,
2013-03-23 15:33:00,42.0,16.0,-100.00,SE,130,5.0,8.0,34,0.00,,,0.00,625.000000,,2013-03-23 20:33:00,
2013-03-23 15:43:00,42.0,16.0,-100.00,SE,130,5.0,8.0,34,0.00,,,0.00,625.000000,,2013-03-23 20:43:00,
2013-03-23 15:53:00,42.0,16.0,-100.00,SE,130,5.0,8.0,34,0.00,,,0.00,625.000000,,2013-03-23 20:53:00,
2013-03-23 16:02:00,42.0,16.0,-100.00,SE,130,5.0,8.0,34,0.00,,,0.00,625.000000,,2013-03-23 21:02:00,
2013-03-23 16:33:00,41.0,18.0,-100.00,SE,135,4.0,9.0,39,0.00,,,0.00,364.000000,,2013-03-23 21:33:00,
2013-03-23 16:43:00,41.0,18.0,-100.00,SE,135,4.0,9.0,39,0.00,,,0.00,364.000000,,2013-03-23 21:43:00,
2013-03-23 16:54:00,41.0,18.0,-100.00,SE,135,4.0,9.0,39,0.00,,,0.00,364.000000,,2013-03-23 21:54:00,
2013-03-23 17:03:00,41.0,18.0,-100.00,SE,135,4.0,9.0,39,0.00,,,0.00,364.000000,,2013-03-23 22:03:00,
2013-03-23 17:33:00,40.0,15.0,-100.00,WSW,241,4.0,7.0,36,0.00,,,0.00,292.000000,,2013-03-23 22:33:00,
2013-03-23 17:43:00,40.0,15.0,-100.00,WSW,241,4.0,7.0,36,0.00,,,0.00,292.000000,,2013-03-23 22:43:00,
2013-03-23 17:53:00,40.0,15.0,-100.00,WSW,241,4.0,7.0,36,0.00,,,0.00,292.000000,,2013-03-23 22:53:00,
2013-03-23 18:02:00,40.0,15.0,-100.00,WSW,241,4.0,7.0,36,0.00,,,0.00,292.000000,,2013-03-23 23:02:00,
2013-03-23 18:33:00,38.0,17.0,-100.00,West,275,4.0,8.0,42,0.00,,,0.00,159.000000,,2013-03-23 23:33:00,
2013-03-23 18:43:00,38.0,17.0,-100.00,West,275,4.0,8.0,42,0.00,,,0.00,159.000000,,2013-03-23 23:43:00,
2013-03-23 18:52:00,38.0,17.0,-100.00,West,275,4.0,8.0,42,0.00,,,0.00,159.000000,,2013-03-23 23:52:00,
2013-03-23 19:02:00,38.0,17.0,-100.00,West,275,4.0,8.0,42,0.00,,,0.00,159.000000,,2013-03-24 00:02:00,
2013-03-23 19:33:00,36.0,17.0,-100.00,West,259,3.0,7.0,46,0.00,,,-99.99,56.000000,,2013-03-24 00:33:00,
2013-03-23 19:42:00,36.0,17.0,-100.00,West,259,3.0,7.0,46,0.00,,,-99.99,56.000000,,2013-03-24 00:42:00,
2013-03-23 19:52:00,36.0,17.0,-100.00,West,259,3.0,7.0,46,0.00,,,-99.99,56.000000,,2013-03-24 00:52:00,
2013-03-23 20:02:00,36.0,17.0,-100.00,West,259,3.0,7.0,46,0.00,,,-99.99,56.000000,,2013-03-24 01:02:00,
2013-03-23 20:33:00,33.0,16.0,-100.00,WNW,294,2.0,4.0,50,0.00,,,0.00,3.000000,,2013-03-24 01:33:00,
2013-03-23 20:43:00,33.0,16.0,-100.00,WNW,294,2.0,4.0,50,0.00,,,0.00,3.000000,,2013-03-24 01:43:00,
2013-03-23 20:53:00,33.0,16.0,-100.00,WNW,294,2.0,4.0,50,0.00,,,0.00,3.000000,,2013-03-24 01:53:00,
2013-03-23 21:03:00,33.0,16.0,-100.00,WNW,294,2.0,4.0,50,0.00,,,0.00,3.000000,,2013-03-24 02:03:00,
2013-03-23 21:32:00,34.0,20.0,-100.00,West,281,4.0,7.0,56,0.00,,,0.00,0.000000,,2013-03-24 02:32:00,
2013-03-23 21:43:00,34.0,20.0,-100.00,West,281,4.0,7.0,56,0.00,,,0.00,0.000000,,2013-03-24 02:43:00,
2013-03-23 21:52:00,34.0,20.0,-100.00,West,281,4.0,7.0,56,0.00,,,0.00,0.000000,,2013-03-24 02:52:00,
2013-03-23 22:02:00,34.0,20.0,-100.00,West,281,4.0,7.0,56,0.00,,,0.00,0.000000,,2013-03-24 03:02:00,
2013-03-23 22:33:00,33.0,17.0,-100.00,NW,311,2.0,6.0,51,0.00,,,0.00,0.000000,,2013-03-24 03:33:00,
2013-03-23 22:43:00,33.0,17.0,-100.00,NW,311,2.0,6.0,51,0.00,,,0.00,0.000000,,2013-03-24 03:43:00,
2013-03-23 22:53:00,33.0,17.0,-100.00,NW,311,2.0,6.0,51,0.00,,,0.00,0.000000,,2013-03-24 03:53:00,
2013-03-23 23:03:00,33.0,17.0,-100.00,NW,311,2.0,6.0,51,0.00,,,0.00,0.000000,,2013-03-24 04:03:00,
2013-03-23 23:33:00,32.0,19.0,-100.00,ENE,58,2.0,5.0,57,0.00,,,0.00,0.000000,,2013-03-24 04:33:00,
2013-03-23 23:43:00,32.0,19.0,-100.00,ENE,58,2.0,5.0,57,0.00,,,0.00,0.000000,,2013-03-24 04:43:00,
2013-03-23 23:53:00,32.0,19.0,-100.00,ENE,58,2.0,5.0,57,0.00,,,0.00,0.000000,,2013-03-24 04:53:00,